Glasgow, MT

3:50 AM MDT on May 23, 2017 (GMT -0600)
Wokal-Glasgow International

Weather History for KGGW - May, 2013

Change the Weather History Date:

Thursday, May 16, 2013

  Actual Average Record
Temperature  
Mean Temperature 61 °F 55 °F  
Max Temperature 74 °F 68 °F 97 °F (1901)
Min Temperature 48 °F 42 °F 26 °F (1923)
Degree Days  
Heating Degree Days 4 10  
Month to date heating degree days 159 202  
Since 1 July heating degree days 8418 8209  
Cooling Degree Days 0 0  
Month to date cooling degree days 9 0  
Year to date cooling degree days 9 1  
Growing Degree Days 12 (Base 50)    
Moisture  
Dew Point 40 °F    
Average Humidity 53    
Maximum Humidity 86    
Minimum Humidity 20    
Precipitation  
Precipitation 0.05 in 0.06 in 0.72 in (1955)
Month to date precipitation 0.15 0.83  
Year to date precipitation 2.96 2.73  
Snow  
Snow 0.00 in 0.00 in T in (1994)
Month to date snowfall 0.0 0.8  
Since 1 July snowfall 62.3 34.4  
Snow Depth 0.00 in    
Sea Level Pressure  
Sea Level Pressure 29.83 in    
Wind  
Wind Speed 7 mph (ESE)    
Max Wind Speed 17 mph    
Max Gust Speed 22 mph    
Visibility 10 miles    
Events Rain    
T = Trace of Precipitation, MM = Missing Value Source: NWS Daily Summary

Daily Weather History Graph

Daily Weather History Graph

Search for Another Location

Airport or City:

Trip Planner

Search our weather history database for the weather conditions in past years. The results will help you decide how hot, cold, wet, or windy it might be!

Date:

Astronomy

May. 16, 2013 Rise Set
Actual Time 5:25 AM MDT 8:41 PM MDT
Civil Twilight 4:47 AM MDT 9:18 PM MDT
Nautical Twilight 3:58 AM MDT 10:08 PM MDT
Astronomical Twilight 2:56 AM MDT 11:11 PM MDT
Moon 11:10 AM MDT (5/16) 12:55 AM MDT (5/16)
Length of Visible Light 16h 30m
Length of Day
15h 15m
Waxing Crescent, 36% of the Moon is Illuminated
May 16
Waxing Crescent
May 17
First Quarter
May 24
Full
May 31
Last Quarter
Jun 8
New

Hourly Weather History & Observations

Time (MDT) Temp. Dew Point Humidity Pressure Visibility Wind Dir Wind Speed Gust Speed Precip Events Conditions
12:53 AM 55.9 °F 28.9 °F 36% 29.86 in 10.0 mi Calm Calm - N/A   Clear
1:53 AM 51.1 °F 33.1 °F 50% 29.84 in 10.0 mi NNE 8.1 mph - N/A   Clear
2:53 AM 51.1 °F 34.0 °F 52% 29.84 in 10.0 mi NE 8.1 mph - N/A   Clear
3:53 AM 52.0 °F 35.1 °F 53% 29.84 in 10.0 mi ENE 5.8 mph - N/A   Clear
4:53 AM 50.0 °F 36.0 °F 59% 29.84 in 10.0 mi ESE 9.2 mph - N/A   Overcast
5:53 AM 50.0 °F 36.0 °F 59% 29.84 in 10.0 mi NE 8.1 mph - N/A   Overcast
6:53 AM 53.1 °F 39.0 °F 59% 29.84 in 10.0 mi North 5.8 mph - N/A   Overcast
7:53 AM 55.9 °F 41.0 °F 57% 29.85 in 10.0 mi WSW 3.5 mph - N/A   Partly Cloudy
8:53 AM 64.9 °F 39.9 °F 40% 29.83 in 10.0 mi Calm Calm - N/A   Partly Cloudy
9:53 AM 66.9 °F 32.0 °F 27% 29.83 in 10.0 mi SSE 5.8 mph - N/A   Mostly Cloudy
10:53 AM 69.1 °F 35.1 °F 29% 29.83 in 10.0 mi Variable 5.8 mph - N/A   Overcast
11:53 AM 72.0 °F 32.0 °F 23% 29.81 in 10.0 mi SE 5.8 mph - N/A   Partly Cloudy
12:53 PM 73.0 °F 30.9 °F 21% 29.80 in 10.0 mi Variable 5.8 mph - N/A   Overcast
1:53 PM 72.0 °F 33.1 °F 24% 29.80 in 10.0 mi South 4.6 mph - N/A   Partly Cloudy
2:53 PM 71.1 °F 34.0 °F 26% 29.80 in 10.0 mi West 4.6 mph - N/A   Mostly Cloudy
3:53 PM 68.0 °F 41.0 °F 37% 29.81 in 10.0 mi South 11.5 mph - N/A   Mostly Cloudy
4:53 PM 69.1 °F 37.9 °F 32% 29.80 in 10.0 mi SSW 9.2 mph - N/A   Overcast
5:53 PM 64.0 °F 48.0 °F 56% 29.82 in 10.0 mi SE 11.5 mph - 0.00 in Rain Light Rain
6:53 PM 59.0 °F 53.1 °F 81% 29.84 in 6.0 mi SSE 10.4 mph - 0.02 in Rain Light Rain
7:53 PM 57.0 °F 54.0 °F 89% 29.82 in 10.0 mi East 10.4 mph - 0.01 in   Overcast
8:53 PM 57.0 °F 53.1 °F 87% 29.82 in 10.0 mi East 12.7 mph - N/A   Overcast
9:53 PM 57.0 °F 51.1 °F 81% 29.83 in 10.0 mi East 12.7 mph - N/A   Overcast
10:53 PM 55.9 °F 50.0 °F 80% 29.82 in 10.0 mi ESE 9.2 mph - N/A   Overcast
11:53 PM 55.9 °F 51.1 °F 84% 29.83 in 10.0 mi SE 4.6 mph - N/A   Overcast